Home > Weather > Fort Lauderdale > Past weeks

Flag for USA Past Weather in Fort Lauderdale, Florida, USA — Yesterday and Last 2 Weeks

Now
81 °F

Passing clouds.


Feels Like: 86 °F
Forecast: 78 / 88 °F
Wind: 3 mph from Northwest

Location: Fort Lauderdale / Hollywood International Airport

Current Time: Jun 29, 2016 at 3:28:04 AM

Latest Report: Jun 29, 2016 at 2:53 AM


Visibility: 10 mi

Pressure: 29.98 "Hg

Humidity: 79%

Dew Point: 74 °F

Location of Fort LauderdaleLocation

Past Weather in Fort Lauderdale — Graph

°F

Fort Lauderdale Temperature Yesterday

Maximum temperature yesterday: 89 °F (at 3:53 PM)
Minimum temperature yesterday: 77 °F (at 10:58 AM)
Average temperature yesterday: 83 °F

High & Low Weather Summary for the Past Weeks

 TemperatureHumidityPressure
High95 °F (Jun 18, 2:53 PM)97% (Jun 22, 5:53 AM)30.15 "Hg (Jun 22, 5:53 AM)
Low73 °F (Jun 17, 12:53 PM)47% (Jun 18, 2:53 PM)29.93 "Hg (Jun 17, 7:53 PM)
Average83 °F72%30.04 "Hg
* Reported Jun 14 1:53 AM — Jun 29 1:53 AM, Fort Lauderdale, Weather by CustomWeather, © 2016

Note: Actual official high and low records may vary slightly from our data, if they occured in-between our weather recording intervals... More about our weather records

Advertising

Fort Lauderdale Weather History for the Previous 24 Hours

Scroll right to see more
 ConditionsComfort  
Time TempWeatherWind HumidityBarometerVisibility
1:53 AM
Wed, Jun 29
83 °FPassing clouds.3 mph74%29.98 "Hg10 mi
12:53 AM83 °FPassing clouds.3 mph72%29.99 "Hg10 mi
11:53 PM
Tue, Jun 28
83 °FPassing clouds.5 mph70%30.01 "Hg10 mi
10:53 PM83 °FPassing clouds.6 mph70%30.01 "Hg10 mi
9:53 PM84 °FPassing clouds.7 mph67%30.00 "Hg10 mi
8:53 PM84 °FPartly sunny.7 mph67%29.99 "Hg10 mi
7:53 PM84 °FScattered clouds.10 mph67%29.97 "Hg10 mi
6:53 PM85 °FScattered clouds.13 mph68%29.96 "Hg10 mi
5:53 PM87 °FScattered clouds.14 mph59%29.96 "Hg10 mi
4:53 PM88 °FScattered clouds.12 mph55%29.96 "Hg10 mi
3:53 PM89 °FScattered clouds.13 mph57%29.97 "Hg10 mi
2:53 PM88 °FScattered clouds.8 mph61%29.98 "Hg10 mi
1:53 PM88 °FScattered clouds.12 mph63%30.01 "Hg10 mi
12:53 PM86 °FScattered clouds.9 mph65%30.02 "Hg10 mi
11:53 AM84 °FBroken clouds.5 mph72%30.03 "Hg10 mi
10:58 AM77 °FRain. Fog.6 mph82%30.04 "Hg3 mi
9:53 AM84 °FBroken clouds.No wind70%30.03 "Hg10 mi
8:53 AM84 °FScattered clouds.No wind72%30.02 "Hg10 mi
7:53 AM81 °FScattered clouds.5 mph79%30.01 "Hg10 mi
6:53 AM79 °FPassing clouds.No wind82%30.00 "Hg10 mi
5:53 AM78 °FPassing clouds.No wind84%30.00 "Hg10 mi
4:53 AM78 °FPassing clouds.3 mph84%29.98 "Hg10 mi
3:53 AM78 °FPassing clouds.3 mph82%29.99 "Hg10 mi
Weather by CustomWeather, © 2016

See weather overviewHow to use our weather pages